Location: downtown San Diego
(32.7310°N, 117.1990°W)
Time: 04:59:03
(UTC-07:00)

USA 229 - Pass Details

Date: 12 July 2018
Orbit: 1030 x 1183 km, 63.4° (Epoch: 11 July)

Event Time Altitude Azimuth Distance (km) Brightness Sun altitude
Rises 22:32:46 0° 331° (NNW) 3,974 8.0 -25.8°
Reaches altitude 10° 22:35:27 10° 333° (NNW) 3,032 7.1 -26.1°
Maximum altitude 22:42:44 76° 59° (ENE) 1,200 3.8 -27.0°
Enters shadow 22:44:15 58° 125° (SE) 1,338 3.8 -27.2°
